COSMOS 2413 (GLONASS)

Satellite information

Favourite Embed

Satellite Type and Status

PAYLOADIN ORBIT

Key statistics

Satellite COSMOS 2413 (GLONASS) at a glance.

Uptime

7440

Days in orbit

Revolutions

≈ 2.1

Per day

Orbit

MEO

Medium Earth Orbit

Inclination

63.9

Latest

Satellite identification and parameters

Extended collection of information and parameters for COSMOS 2413 (GLONASS).

Object identification

Identified? True

Debris? False

Object name: COSMOS 2413 (GLONASS)

International designator: 2004-053A

Object number (NORAD): 28508

Object ID (CCSDS): 28508

Country: COMMONWEALTH OF INDEPENDENT STATES (CIS)

Current information (Y/N): Y

RCS size: LARGE

Orbital parameters

Period: 675.727 minutes

Inclination: 63.949 deg

SMA: 25507.878 km

Apoapsis: 19147.762 km

Periapsis: 19111.724 km

RAAN: 74.5062 deg

Eccentricy: 0.0007064

Argument of periapsis: 228.5355 deg

Mean anomaly: 296.8605 deg

Mean motion: 2.13103834 rev/day

Mean motion (dot): -0.00000035 rev/day2

B* drag term: 0.0 1/REarth

Two-line elements (TLE)

Creation date: May 10, 2025, 2:32 a.m.

Reference frame: TEME

Reference center: EARTH

Epoch: May 9, 2025, 10:02 a.m. UTC

TLE line 0: 0 COSMOS 2413 (GLONASS)

TLE line 1: 1 28508U 04053A 25129.41840046 -.00000035 00000-0 00000-0 0 9990

TLE line 2: 2 28508 63.9490 74.5062 0007064 228.5355 296.8605 2.13103834158529

Live tracking on map

Real-time ground track for satellite COSMOS 2413 (GLONASS).

In-orbit conjunctions

There are no conjunctions computed for COSMOS 2413 (GLONASS), at the moment. Check back to stay up to date, as we update our databases every day.

Go to all conjunctions

Associated space launch

GLONASS navigation satellites

COSMOS 2413 (GLONASS) was lifted into orbit during the mission ‘Proton | Uragan 85, 86 & Uragan-M 3’, on board a Proton space rocket.

The launch took place on Dec. 26, 2004, 1:53 p.m. from 200/39 (200L).

For more information about the launch, click the button.

Launch to space Proton | Uragan 85, 86 & Uragan-M 3
Proton | Uragan 85, 86 & Uragan-M 3

Agency: N/A

Status: Launch Successful

Launch date: Dec. 26, 2004, 1:53 p.m. UTC

Rocket: Proton

Launch pad: 200/39 (200L)

Location: Baikonur Cosmodrome, Republic of Kazakhstan

...

Latest news about this satellite

There are no fresh news available about this satellite. Check back as we update our databases every day.


Newsletter sign-up

Weekly statistics, charts and insights to help you stay on top of the space industry.